GBXWS EGPA-EGPE

Flight info

Callsign GBXWS
Flight time N/A
Altitude 2500
Route EGPC DCT 582338N0030728W DCT 581800N0031706W DCT 574106N0041024W DCT 573231N0041239W DCT 572840N0040345W DCT EGPE
Aircraft H500/L-VGDW/C

Departure

Time 2026-04-22 16:58
Airport Kirkwall Airport (EGPA)

Arrival

Time N/A
Airport Inverness Airport (EGPE)
Time Latitude Longitude Altitude Speed Heading
2026-04-22 16:49 58.95897 -2.91379 46 ft 0 kts 306°
2026-04-22 16:56 58.95894 -2.91384 48 ft 3 kts 135°
2026-04-22 16:56 58.95867 -2.91280 54 ft 18 kts 112°
2026-04-22 16:56 58.95910 -2.91139 51 ft 21 kts 33°
2026-04-22 16:56 58.96060 -2.90897 47 ft 23 kts 125°
2026-04-22 16:57 58.96087 -2.90884 37 ft 10 kts 188°
2026-04-22 16:57 58.96030 -2.90887 31 ft 1 kts 126°
2026-04-22 16:58 58.96024 -2.90877 39 ft 8 kts 142°
2026-04-22 16:58 58.95664 -2.90329 49 ft 91 kts 144°
2026-04-22 16:58 58.95124 -2.89430 249 ft 104 kts 134°
2026-04-22 16:58 58.94853 -2.88360 800 ft 82 kts 97°
2026-04-22 16:59 58.95098 -2.87490 1313 ft 74 kts 19°
2026-04-22 16:59 58.95528 -2.87671 1800 ft 67 kts 309°
2026-04-22 16:59 58.95927 -2.88605 1736 ft 116 kts 306°
2026-04-22 16:59 58.96554 -2.89967 1275 ft 150 kts 308°
2026-04-22 17:00 58.97282 -2.91429 1056 ft 149 kts 312°
2026-04-22 17:00 58.98058 -2.94593 1165 ft 129 kts 247°
2026-04-22 17:00 58.97574 -2.95949 1280 ft 121 kts 194°
2026-04-22 17:01 58.96762 -2.95945 1420 ft 122 kts 165°
2026-04-22 17:01 58.95917 -2.95313 1214 ft 139 kts 147°
2026-04-22 17:01 58.95099 -2.94166 938 ft 146 kts 139°
2026-04-22 17:01 58.94246 -2.93068 629 ft 150 kts 150°
2026-04-22 17:02 58.93451 -2.92342 1029 ft 109 kts 161°
2026-04-22 17:02 58.92701 -2.91999 1070 ft 117 kts 177°
2026-04-22 17:02 58.91842 -2.92188 927 ft 129 kts 196°
2026-04-22 17:02 58.91009 -2.92755 930 ft 126 kts 206°
2026-04-22 17:03 58.90262 -2.93630 927 ft 125 kts 218°
2026-04-22 17:03 58.89664 -2.94826 923 ft 124 kts 234°
2026-04-22 17:03 58.89182 -2.96197 940 ft 122 kts 241°
2026-04-22 17:03 58.88818 -2.97697 923 ft 124 kts 247°
2026-04-22 17:04 58.88431 -2.99171 919 ft 125 kts 239°
2026-04-22 17:04 58.88213 -3.00427 4 ft 0 kts 325°
2026-04-22 17:08 58.95897 -2.91379 46 ft 0 kts 306°